CZ-3B DEB, 39334

Orbit data source: Space-Track

CZ-3B DEB, 39334 is space debris in HEO originally from a launch on Sat, 04 Sep 2010 UTC launched from the Xichang Space Center, China (XSC). Debris objects in space refer to the collection of defunct objects orbiting the Earth. Examples of debris include non-operational satellites, rocket bodies, and fragments generated from explosions, collisions, or faulty payload assembly.

Loading next visibility...
Identifier
39334, 2010-042F
Orbit
HEO
Country
Flag of CNCN / PRC
Related business
Manufacturer
CALT
Mission
Spacecraft
Bus & Motor
Unknown
Mass
Unknown
Launch date (UTC)
2010-09-04 (16 years ago)
Launch vehicle
Unknown
Launch site
Xichang Space Center, China (XSC)
Object type
Payload
Rocket body
Debris
Shape & HBR
Unknown shape, 0.3 m
Radar Cross Section
Medium (>0.1 m² and <1 m²)

Expand to show TLE details & history
Last TLE update: 2 days ago

TLE from 2 days ago
0 CZ-3B DEB
1 39334U 10042F   26171.40192375 -.00000057  00000-0  00000+0 0  9999
2 39334  25.4467 238.0296 7380421  48.4046   4.0997  1.86381784 97880
Epoch: 2026-06-20T09:38Z
TLE epoch observation values (Epoch: 2026-06-20T09:38:46.212Z)
Latitude
25.55025°
Longitude
-88.57386°
Altitude
1,654.369 km
Speed
9.219 km/s
True Right ascension
21h 38m 56s
True Declination
25° 25' 54"
Sunlit
Object was in daylight at epoch
Visualization orbit readout
Latitude
Unknown
Longitude
Unknown
Altitude
Unknown
Speed
Unknown
Apparent Right ascension
Unknown
Apparent Declination
Unknown
Sunlit
N/A
Visualization observer readout
Local Sidereal Time
23:18:52
Azimuth
Unknown
Elevation
Unknown
Doppler factor
Unknown
Orbital elements
Apogee altitude
42,104.321 km
Perigee altitude
929.144 km
Semi-major axis
27,894.87 km
Eccentricity
0.73804
Inclination
25.4467°
RAAN
238.0296°
Arg. of periapsis
48.4046°
True anomaly
37.82686°
Mean anomaly
4.0997°
Eccentric anomaly
15.15417°
Mean motion
0.46586 °/min
Orbital period
772.76 mins
BSTAR
0
Loading maneuver chart data...
Computing Atmospheric mass density...
Loading historical data...
Loading historical data...
Loading historical data...
Loading historical data...
Loading historical data...
Loading historical data...
Loading historical data...

Documentation

Showing up to 5 results
|